Regional Weather Roundup
Issued by NWS Sterling, VA

Home | Current Version | Previous Version | Graphics & Text | Print | Product List | Glossary On
Versions: 1 2 3 4 5 6 7 8 9 10 11 12 13 14 15 16 17 18 19 20 21 22 23 24 25 26 27 28 29 30 31 32 33 34 35 36 37 38 39 40 41 42 43 44 45 46 47 48 49 50
000
ASUS41 KLWX 080310
RWRLWX

REGIONAL WEATHER ROUNDUP
NATIONAL WEATHER SERVICE BALTIMORE MD/WASHINGTON DC
1000 PM EST WED DEC 07 2016

Note: "FAIR" indicates few or no clouds below 12,000 feet
with no significant weather and/or obstructions to visibility.
 TC=TEMPERATURE CELSIUS

 * =Non NWS site. Station does not report precipitation (e.g. rain,
    snow, etc.), thunder, or fog.

DCZ001-MDZ009-015-VAZ040>042-051-053>054-080400-
WASHINGTON METRO

CITY           SKY/WX    TMP DP  RH WIND       PRES   REMARKS
WASHINGTON NAT PTCLDY    41  35  79 CALM      30.09R
DULLES         CLOUDY    32  29  88 CALM      30.08R
ANDREWS AFB    PTCLDY    33  30  87 CALM      30.06S
FT BELVOIR     MOCLDY    34  31  91 CALM      30.08S
QUANTICO       PTCLDY    36  33  89 NW8       30.10S
COLLEGE PARK*  PTCLDY    32  30  93 CALM      30.08R
LEESBURG*      CLOUDY    34  32  93 W6        30.09R
MANASSAS*      CLEAR    N/A N/A N/A CALM      30.09R
GAITHERSBURG*  CLOUDY    30  27  86 CALM      30.11R

$$

MDZ006>007-011-014-080400-
BALTIMORE METRO

CITY           SKY/WX    TMP DP  RH WIND       PRES   REMARKS
BWI AIRPORT    MOCLDY    34  32  92 W3        30.07S
MD SCIENCE CTR   N/A     43  32  65 MISG      30.06S
MARTIN STATE   CLEAR     36  34  93 CALM      30.09R
ANNAPOLIS      PTCLDY    40  34  79 CALM      30.08R
FORT MEADE*    PTCLDY    30  30 100 CALM      30.10S

$$

MDZ012-015-019>023-080400-
MARYLAND EASTERN SHORE

CITY           SKY/WX    TMP DP  RH WIND       PRES   REMARKS
OCEAN CITY     MOCLDY    37  36  96 CALM      30.08S FOG
SALISBURY      PTCLDY    35  34  96 CALM      30.08S
EASTON*        PTCLDY    37  35  93 CALM      30.11S FOG

$$

MDZ017>025-080400-
SOUTHERN MARYLAND

CITY           SKY/WX    TMP DP  RH WIND       PRES   REMARKS
PATUXENT RIVER MOCLDY    35  33  92 SW3       30.07F
ST INIGOES     PTCLDY    35  32  88 CALM      30.07F
LEONARDTOWN*   PTCLDY    36  32  87 CALM      30.09S

$$

MDZ003>005-080400-
NORTH CENTRAL MARYLAND

CITY           SKY/WX    TMP DP  RH WIND       PRES   REMARKS
FREDERICK*     NOT AVBL
HAGERSTOWN APT CLOUDY    38  20  48 S3        30.07R
WESTMINSTER*   CLOUDY    32  30  93 CALM      30.05S

$$

MDZ501>502-080400-
WESTERN MARYLAND

CITY           SKY/WX    TMP DP  RH WIND       PRES   REMARKS
OAKLAND*       NOT AVBL
CUMBERLAND*    NOT AVBL

$$

VAZ025>031-080400-
SHENANDOAH VALLEY

CITY           SKY/WX    TMP DP  RH WIND       PRES   REMARKS
WINCHESTER*    CLOUDY    30  25  80 CALM      30.06S
FRONT ROYAL*   FAIR      32  32 100 CALM      30.05S
LURAY*         FAIR      32  32 100 CALM      30.05F
NEW MARKET*    FAIR      29  28  94 CALM      30.05S
STAUNTON*      CLEAR     30  29  97 CALM      30.06F
WAYNESBORO*    FAIR      32  29  90 CALM      30.05S

$$

WVZ021-048>050-054>055-080400-
EASTERN WEST VIRGINIA PANHANDLE

CITY           SKY/WX    TMP DP  RH WIND       PRES   REMARKS
MARTINSBURG    CLOUDY    37  22  54 N6        30.06S
PETERSBURG*    CLOUDY    29  27  90 CALM      30.08F

$$

VAZ036>039-050-080400-
CENTRAL FOOTHILLS

CITY           SKY/WX    TMP DP  RH WIND       PRES   REMARKS
CHARLOTTESVILL PTCLDY    39  32  76 CALM      30.06S
CULPEPER*      PTCLDY    31  31  96 CALM      30.09S
ORANGE*          N/A     34  34 100 CALM      30.08S
GORDONSVILLE*  FAIR      33  33 100 CALM      30.06S
WARRENTON*     FAIR      29  25  86 CALM      30.07S

$$

VAZ055>057-080400-
NORTH AND CENTRAL PIEDMONT

CITY           SKY/WX    TMP DP  RH WIND       PRES   REMARKS
FREDERICKSBRG* PTCLDY    36  36 100 CALM      30.08S
STAFFORD*      PTCLDY    31  31 100 CALM      30.12S

$$

NCZ024-NYZ072-PAZ021-071-VAZ022-071-080400-
OTHER REGIONAL OBSERVATIONS

CITY           SKY/WX    TMP DP  RH WIND       PRES   REMARKS
NEW YORK CITY  CLOUDY    44  34  67 W6        30.04F
PHILADELPHIA   MOCLDY    37  29  72 CALM      30.07R
PITTSBURGH     CLOUDY    37  23  56 W6        30.05S
ROANOKE        PTCLDY    40  31  70 CALM      30.08S
RALEIGH        MOCLDY    47  42  83 CALM      30.07F

$$

ANZ530>537-080400-
MARINE OBSERVATIONS

STATION/POSITION TIME  TEMP    WIND        PRES
                       AIR SEA DIR/SP/G
                 (UTC) (F)     (DEG/KT/KT) (MB)
THOMAS PT LIGHT  0300   45 49  270/  3/  3   N/A
BALT KEY BRIDGE  0248   42     240/  5/  5 1018.3R
COVE POINT       0248   45      CALM  /  1 1018.9S
LEWISETTA        0248   42 49  240/  2/  3 1018.1F
SOLOMONS ISLAND  0242   41 50  320/  1/  2   N/A
PINEY POINT      0248          100/  4/  4   N/A

$$




USA.gov is the U.S. government's official web portal to all federal, state and local government web resources and services.